Location: Amsterdam
(30.7274°N, 84.4357°W)
Time: 05:07:53
(UTC+00:00)

Explorer 11/Cluster Stage 4 - Pass Details

Date: 23 February 2026
Orbit: 463 x 1175 km, 28.8° (Epoch: 13 March)

Event Time Altitude Azimuth Distance (km) Brightness Sun altitude
Rises 16:02:29 0° 246° (WSW) 3,599 9.9 41.9°
Reaches altitude 10° 16:05:25 10° 242° (WSW) 2,534 9.2 42.3°
Maximum altitude 16:11:13 51° 168° (SSE) 942 8.9 43.0°
Drops below altitude 10° 16:15:55 10° 92° (E) 2,060 9.3 43.6°
Sets 16:18:06 0° 87° (E) 2,871 9.8 43.9°
